| time (UTC) | temp C | wind direction | speed KPH | gust KPH | rain 1hr cm | rain 24hr cm | rain mn cm | humidity % | barometer mb |
| 20260504204705 | 13 | 207 | 6.4 | 11.3 | 0.00 | 0.79 | 0.79 | 76 | 1003.3 |
| 20260504202704 | 13 | 234 | 4.8 | 9.7 | 0.00 | 0.79 | 0.79 | 75 | 1003.4 |
| 20260504202205 | 13 | 182 | 8.0 | 12.9 | 0.00 | 0.79 | 0.79 | 75 | 1003.5 |
| 20260504200704 | 13 | 215 | 4.8 | 9.7 | 0.00 | 0.79 | 0.79 | 75 | 1003.4 |
| 20260504200204 | 13 | 169 | 3.2 | 14.5 | 0.00 | 0.79 | 0.79 | 77 | 1003.4 |
| 20260504194705 | 12 | 171 | 3.2 | 4.8 | 0.00 | 0.79 | 0.79 | 80 | 1003.5 |
| 20260504194205 | 12 | 168 | 3.2 | 14.5 | 0.00 | 0.79 | 0.79 | 81 | 1003.6 |
| 20260504192704 | 12 | 180 | 4.8 | 11.3 | 0.00 | 0.79 | 0.79 | 78 | 1003.9 |
| 20260504192204 | 12 | 241 | 3.2 | 14.5 | 0.00 | 0.79 | 0.79 | 80 | 1003.9 |
| 20260504190705 | 12 | 216 | 6.4 | 11.3 | 0.00 | 0.79 | 0.79 | 80 | 1004.0 |
| 20260504190204 | 12 | 192 | 3.2 | 9.7 | 0.00 | 0.79 | 0.79 | 80 | 1003.9 |
| 20260504184704 | 10 | 258 | 3.2 | 4.8 | 0.00 | 0.79 | 0.79 | 83 | 1004.2 |
| 20260504184205 | 10 | 260 | 4.8 | 8.0 | 0.00 | 0.79 | 0.79 | 83 | 1004.3 |
| 20260504182704 | 10 | 264 | 4.8 | 9.7 | 0.00 | 0.79 | 0.79 | 82 | 1004.3 |
| 20260504182204 | 10 | 279 | 1.6 | 11.3 | 0.00 | 0.79 | 0.79 | 83 | 1004.3 |
| 20260504180704 | 10 | 293 | 6.4 | 14.5 | 0.00 | 0.79 | 0.79 | 82 | 1004.4 |
| 20260504180204 | 10 | 266 | 6.4 | 14.5 | 0.00 | 0.79 | 0.79 | 82 | 1004.3 |
| 20260504174705 | 10 | 253 | 8.0 | 16.1 | 0.00 | 0.79 | 0.79 | 81 | 1004.3 |
| 20260504174204 | 11 | 264 | 8.0 | 20.9 | 0.00 | 0.79 | 0.79 | 81 | 1004.3 |
| 20260504172704 | 11 | 281 | 9.7 | 14.5 | 0.00 | 0.79 | 0.79 | 83 | 1004.3 |
| 20260504172204 | 10 | 290 | 9.7 | 22.5 | 0.00 | 0.79 | 0.79 | 84 | 1004.2 |
| 20260504170704 | 10 | 284 | 8.0 | 19.3 | 0.00 | 0.79 | 0.79 | 86 | 1004.4 |
| 20260504170204 | 10 | 285 | 11.3 | 19.3 | 0.00 | 0.79 | 0.79 | 89 | 1004.4 |
| 20260504160204 | 7 | 239 | 3.2 | 4.8 | 0.00 | 0.79 | 0.79 | 93 | 1004.3 |
| 20260504150704 | 6 | 239 | 1.6 | 3.2 | 0.03 | 0.79 | 0.79 | 94 | 1004.0 |
| 20260504140706 | 5 | 238 | 4.8 | 8.0 | 0.23 | 0.76 | 0.76 | 93 | 1003.7 |
| 20260504140204 | 5 | 211 | 4.8 | 8.0 | 0.25 | 0.76 | 0.76 | 93 | 1003.6 |
| 20260504130704 | 5 | 153 | 0.0 | 0.0 | 0.43 | 0.51 | 0.51 | 91 | 1003.2 |
| 20260504130204 | 5 | 153 | 0.0 | 0.0 | 0.43 | 0.51 | 0.51 | 91 | 1003.3 |
| 20260504120204 | 5 | 153 | 3.2 | 4.8 | 0.08 | 0.08 | 0.08 | 87 | 1003.3 |
| 20260504110704 | 6 | 164 | 3.2 | 4.8 | 0.00 | 0.00 | 0.00 | 81 | 1003.6 |
| 20260504110204 | 5 | 165 | 4.8 | 11.3 | 0.00 | 0.00 | 0.00 | 80 | 1003.8 |
| 20260504100204 | 3 | 168 | 4.8 | 9.7 | 0.00 | 0.00 | 0.00 | 79 | 1004.1 |
| 20260504080703 | 3 | 177 | 4.8 | 4.8 | 0.00 | 0.00 | 0.00 | 75 | 1004.7 |
| 20260504080204 | 3 | 177 | 3.2 | 9.7 | 0.00 | 0.00 | 0.00 | 75 | 1004.7 |
| 20260504070205 | 3 | 177 | 4.8 | 8.0 | 0.00 | 0.00 | 0.00 | 73 | 1004.6 |
| 20260504050705 | 2 | 273 | 1.6 | 3.2 | 0.00 | 0.00 | 0.00 | 81 | 1005.0 |
| 20260504050205 | 2 | 273 | 0.0 | 0.0 | 0.00 | 0.00 | 0.00 | 80 | 1005.0 |
| 20260504044705 | 2 | 273 | 0.0 | 0.0 | 0.00 | 0.00 | 0.00 | 79 | 1005.2 |
| 20260504044205 | 2 | 273 | 0.0 | 1.6 | 0.00 | 0.00 | 0.00 | 79 | 1005.2 |
| 20260504042705 | 2 | 273 | 0.0 | 0.0 | 0.00 | 0.00 | 0.00 | 79 | 1005.4 |
| 20260504042205 | 2 | 273 | 0.0 | 1.6 | 0.00 | 0.00 | 0.00 | 79 | 1005.4 |
| 20260504040705 | 3 | 273 | 0.0 | 0.0 | 0.00 | 0.00 | 0.00 | 78 | 1005.4 |
| 20260504040205 | 3 | 273 | 0.0 | 3.2 | 0.00 | 0.00 | 0.00 | 77 | 1005.4 |
| 20260504034705 | 3 | 273 | 0.0 | 0.0 | 0.00 | 0.00 | 0.00 | 75 | 1005.4 |
| 20260504034205 | 3 | 273 | 0.0 | 0.0 | 0.00 | 0.00 | 0.00 | 74 | 1005.5 |
| 20260504032704 | 3 | 273 | 0.0 | 0.0 | 0.00 | 0.00 | 0.00 | 73 | 1005.5 |
| 20260504032205 | 4 | 273 | 0.0 | 0.0 | 0.00 | 0.00 | 0.00 | 73 | 1005.5 |
| 20260504030705 | 4 | 273 | 0.0 | 0.0 | 0.00 | 0.00 | 0.00 | 73 | 1005.5 |
| 20260504030205 | 4 | 273 | 0.0 | 0.0 | 0.00 | 0.00 | 0.00 | 73 | 1005.6 |
| 20260504024705 | 4 | 273 | 0.0 | 1.6 | 0.00 | 0.00 | 0.00 | 72 | 1005.6 |
| 20260504024205 | 4 | 273 | 0.0 | 0.0 | 0.00 | 0.00 | 0.00 | 72 | 1005.6 |
| 20260504022705 | 5 | 273 | 0.0 | 3.2 | 0.00 | 0.00 | 0.00 | 71 | 1005.7 |
| 20260504022205 | 5 | 273 | 1.6 | 3.2 | 0.00 | 0.00 | 0.00 | 72 | 1005.7 |
| 20260504020705 | 5 | 273 | 0.0 | 1.6 | 0.00 | 0.00 | 0.00 | 71 | 1005.8 |
| 20260504020205 | 5 | 273 | 0.0 | 1.6 | 0.00 | 0.00 | 0.00 | 70 | 1005.7 |
| 20260504014705 | 5 | 273 | 0.0 | 0.0 | 0.00 | 0.00 | 0.00 | 68 | 1005.8 |
| 20260504014205 | 5 | 273 | 0.0 | 1.6 | 0.00 | 0.00 | 0.00 | 68 | 1005.9 |
| 20260504012705 | 5 | 273 | 1.6 | 3.2 | 0.00 | 0.00 | 0.00 | 67 | 1005.9 |
| 20260504012205 | 5 | 273 | 1.6 | 4.8 | 0.00 | 0.00 | 0.00 | 67 | 1005.9 |
| 20260504010705 | 6 | 273 | 0.0 | 0.0 | 0.00 | 0.00 | 0.00 | 67 | 1005.8 |
| 20260504010204 | 6 | 273 | 0.0 | 0.0 | 0.00 | 0.00 | 0.00 | 65 | 1005.9 |
| 20260504004705 | 7 | 273 | 0.0 | 0.0 | 0.00 | 0.00 | 0.00 | 62 | 1005.7 |
| 20260504004204 | 7 | 273 | 0.0 | 3.2 | 0.00 | 0.00 | 0.00 | 61 | 1005.6 |
| 20260504002704 | 7 | 273 | 0.0 | 0.0 | 0.00 | 0.00 | 0.00 | 59 | 1005.5 |
| 20260504002204 | 7 | 273 | 0.0 | 3.2 | 0.00 | 0.00 | 0.00 | 58 | 1005.5 |
| 20260504000704 | 8 | 273 | 1.6 | 3.2 | 0.00 | 0.00 | 0.00 | 55 | 1005.4 |
| 20260504000205 | 8 | 273 | 0.0 | 3.2 | 0.00 | 0.00 | 0.00 | 54 | 1005.4 |
| 20260503234704 | 9 | 273 | 0.0 | 0.0 | 0.00 | 0.00 | 0.00 | 52 | 1005.5 |
| 20260503234204 | 9 | 273 | 0.0 | 1.6 | 0.00 | 0.00 | 0.00 | 52 | 1005.5 |
| 20260503232705 | 10 | 273 | 0.0 | 1.6 | 0.00 | 0.00 | 0.00 | 49 | 1005.5 |
| 20260503232204 | 10 | 273 | 0.0 | 3.2 | 0.00 | 0.00 | 0.00 | 49 | 1005.5 |
| 20260503230705 | 10 | 273 | 1.6 | 3.2 | 0.00 | 0.00 | 0.00 | 47 | 1005.5 |
| 20260503230204 | 10 | 273 | 1.6 | 3.2 | 0.00 | 0.00 | 0.00 | 47 | 1005.5 |
| 20260503224705 | 10 | 273 | 1.6 | 3.2 | 0.00 | 0.00 | 0.00 | 45 | 1005.6 |
| 20260503224204 | 10 | 273 | 3.2 | 4.8 | 0.00 | 0.00 | 0.00 | 46 | 1005.6 |
| 20260503222705 | 10 | 273 | 0.0 | 4.8 | 0.00 | 0.00 | 0.00 | 47 | 1005.6 |
| 20260503222205 | 10 | 273 | 3.2 | 8.0 | 0.00 | 0.00 | 0.00 | 47 | 1005.6 |
| 20260503220704 | 10 | 294 | 1.6 | 4.8 | 0.00 | 0.00 | 0.00 | 46 | 1005.7 |
| 20260503220205 | 10 | 320 | 3.2 | 9.7 | 0.00 | 0.00 | 0.00 | 48 | 1005.7 |
| 20260503214704 | 10 | 299 | 4.8 | 8.0 | 0.00 | 0.00 | 0.00 | 46 | 1005.7 |
| 20260503214205 | 10 | 277 | 1.6 | 8.0 | 0.00 | 0.00 | 0.00 | 48 | 1005.8 |
| 20260503212705 | 10 | 287 | 6.4 | 11.3 | 0.00 | 0.03 | 0.00 | 47 | 1005.8 |
| 20260503212204 | 10 | 292 | 4.8 | 11.3 | 0.00 | 0.03 | 0.00 | 46 | 1005.9 |
| 20260503210704 | 10 | 269 | 1.6 | 8.0 | 0.00 | 0.03 | 0.00 | 46 | 1005.9 |
| 20260503210204 | 10 | 264 | 4.8 | 11.3 | 0.00 | 0.03 | 0.00 | 46 | 1005.8 |